Вернуться в каталог

THORAD DELTA 1 DEB

АктивенSSO
NORAD 10392·DEBRIS·🇺🇸 United States

Запущен Nov 15, 1974 с Vandenberg Space Force Base

Loading…

Ближайшие Пролёты (ближайшие 24 часа)

TLE

СвежийSource: Space-Track

Эпоха: Sep 14, 2026, 01:02 UTC

1 10392U 74089EH  26257.04347519 -.00000035  00000-0  42772-4 0  9993
2 10392 101.2056 293.7431 0050508  91.1308 299.0822 12.60139039385980

Отслеживайте THORAD DELTA 1 DEB в реальном времени с AllMySat

Download on the App Store